Weather History for Ingleside, TX

Change the Weather History Date:

Friday, December 7, 2012

  Actual Average Record
Temperature  
Mean Temperature 73 °F -  
Max Temperature 81 °F - - ()
Min Temperature 65 °F - - ()
Cooling Degree Days 8    
Growing Degree Days 23 (Base 50)    
Moisture  
Dew Point 68 °F    
Average Humidity 85    
Maximum Humidity 96    
Minimum Humidity 61    
Precipitation  
Precipitation 0.01 in - - ()
Sea Level Pressure  
Sea Level Pressure 29.83 in    
Wind  
Wind Speed 8 mph (SSE)    
Max Wind Speed 18 mph    
Max Gust Speed 25 mph    
Visibility 9 miles    
Events Fog    
T = Trace of Precipitation, MM = Missing Value Source: NWS Daily Summary

Daily Weather History Graph

Daily Weather History Graph

Search for Another Location

Airport:

Trip Planner

Search our weather history database for the weather conditions in past years. The results will help you decide how hot, cold, wet, or windy it might be!

Date:

Astronomy

Dec. 07, 2012 Rise Set
Actual Time 7:07 AM CST 5:33 PM CST
Civil Twilight 6:41 AM CST 5:59 PM CST
Nautical Twilight 6:12 AM CST 6:28 PM CST
Astronomical Twilight 5:44 AM CST 6:56 PM CST
Moon 12:56 AM CST (12/7) 1:06 PM CST (12/7)
Length of Visible Light 11h 17m
Length of Day
10h 26m
Last Quarter, 38% of the Moon is Illuminated
Dec 7
Last Quarter
Dec 13
New
Dec 19
First Quarter
Dec 28
Full
Jan 4
Last Quarter

Hourly Weather History & Observations

Time (CST) Temp. Heat Index Dew Point Humidity Pressure Visibility Wind Dir Wind Speed Gust Speed Precip Events Conditions
12:15 AM 67.5 °F - 66.0 °F 95% 29.86 in 10.0 mi SSE 6.9 mph - N/A   Clear
12:35 AM 68.0 °F - 66.6 °F 95% 29.86 in 10.0 mi SSE 5.8 mph - N/A   Clear
12:55 AM 68.0 °F - 66.4 °F 95% 29.86 in 10.0 mi SSE 5.8 mph - N/A   Clear
1:15 AM 67.6 °F - 66.0 °F 95% 29.86 in 10.0 mi SSE 6.9 mph - N/A   Clear
1:35 AM 67.3 °F - 65.7 °F 95% 29.85 in 10.0 mi SSE 5.8 mph - N/A   Clear
1:55 AM 66.9 °F - 65.1 °F 94% 29.85 in 10.0 mi SSE 5.8 mph - N/A   Clear
2:15 AM 66.7 °F - 65.1 °F 95% 29.85 in 10.0 mi SSE 6.9 mph - N/A   Clear
2:35 AM 66.6 °F - 65.1 °F 95% 29.84 in 10.0 mi SE 5.8 mph - N/A   Clear
2:55 AM 66.6 °F - 65.3 °F 96% 29.84 in 10.0 mi SE 5.8 mph - N/A   Clear
3:15 AM 66.4 °F - 65.1 °F 96% 29.84 in 10.0 mi SSE 6.9 mph - N/A   Clear
3:35 AM 66.4 °F - 64.9 °F 95% 29.84 in 7.0 mi SE 5.8 mph - N/A   Clear
3:55 AM 66.7 °F - 65.1 °F 95% 29.84 in 7.0 mi SE 6.9 mph - N/A   Clear
4:15 AM 66.4 °F - 64.9 °F 95% 29.83 in 10.0 mi SE 5.8 mph - 0.01 in   Clear
4:35 AM 66.4 °F - 64.9 °F 95% 29.83 in 7.0 mi SE 5.8 mph - 0.01 in   Clear
4:55 AM 66.6 °F - 65.1 °F 95% 29.83 in 0.2 mi SE 4.6 mph - 0.01 in Fog Fog
5:15 AM 66.7 °F - 65.3 °F 95% 29.83 in 0.5 mi SE 5.8 mph - N/A Fog Fog
5:35 AM 66.2 °F - 64.8 °F 95% 29.83 in 0.5 mi SE 4.6 mph - N/A Fog Fog
5:55 AM 66.4 °F - 64.9 °F 95% 29.84 in 0.5 mi SE 5.8 mph - N/A Fog Fog
6:15 AM 66.2 °F - 64.8 °F 95% 29.84 in 0.5 mi SSE 6.9 mph - N/A Fog Fog
6:35 AM 65.5 °F - 64.2 °F 96% 29.84 in 0.5 mi SE 5.8 mph - N/A Fog Fog
6:55 AM 65.7 °F - 64.6 °F 96% 29.84 in 1.0 mi SSE 5.8 mph - N/A   Mist
7:15 AM 66.2 °F - 64.9 °F 96% 29.85 in 0.2 mi SE 5.8 mph - N/A Fog Fog
7:35 AM 66.4 °F - 65.3 °F 96% 29.85 in 5.0 mi SE 5.8 mph - N/A   Clear
7:55 AM 67.1 °F - 65.8 °F 96% 29.85 in 10.0 mi SE 5.8 mph - N/A   Clear
8:15 AM 69.8 °F - 68.4 °F 95% 29.86 in 10.0 mi SE 4.6 mph - N/A   Clear
8:35 AM 71.1 °F - 69.6 °F 95% 29.86 in 10.0 mi SE 6.9 mph - N/A   Clear
8:55 AM 72.5 °F - 70.9 °F 95% 29.87 in 10.0 mi SSE 5.8 mph - N/A   Clear
9:15 AM 73.4 °F - 71.8 °F 95% 29.87 in 10.0 mi SSE 10.4 mph - N/A   Clear
9:35 AM 74.7 °F - 71.4 °F 90% 29.88 in 10.0 mi SSE 11.5 mph - N/A   Clear
9:55 AM 76.1 °F - 70.5 °F 83% 29.88 in 10.0 mi SSE 8.1 mph 16.1 mph N/A   Clear
10:15 AM 77.4 °F - 70.0 °F 78% 29.88 in 10.0 mi South 12.7 mph 17.3 mph N/A   Clear
10:35 AM 78.3 °F - 69.8 °F 75% 29.88 in 10.0 mi South 12.7 mph 17.3 mph N/A   Scattered Clouds
10:55 AM 79.0 °F - 69.4 °F 72% 29.88 in 10.0 mi South 11.5 mph 18.4 mph N/A   Scattered Clouds
11:15 AM 79.7 °F - 68.7 °F 69% 29.87 in 10.0 mi South 15.0 mph 20.7 mph N/A   Clear
11:35 AM 80.4 °F 83.2 °F 68.4 °F 67% 29.86 in 10.0 mi South 15.0 mph 19.6 mph N/A   Scattered Clouds
11:55 AM 80.6 °F 83.2 °F 68.0 °F 65% 29.85 in 10.0 mi South 16.1 mph 24.2 mph N/A   Scattered Clouds
12:15 PM 81.0 °F 83.8 °F 68.2 °F 65% 29.84 in 10.0 mi South 18.4 mph 21.9 mph N/A   Scattered Clouds
12:35 PM 81.3 °F 84.0 °F 67.8 °F 63% 29.83 in 10.0 mi South 18.4 mph 23.0 mph N/A   Scattered Clouds
12:55 PM 81.1 °F 83.7 °F 67.3 °F 63% 29.81 in 10.0 mi South 17.3 mph 23.0 mph N/A   Clear
1:15 PM 81.3 °F 83.8 °F 67.3 °F 62% 29.81 in 10.0 mi South 17.3 mph 21.9 mph N/A   Clear
1:35 PM 81.0 °F 83.3 °F 66.9 °F 62% 29.80 in 10.0 mi South 13.8 mph 24.2 mph N/A   Clear
1:55 PM 81.3 °F 83.6 °F 66.9 °F 61% 29.80 in 10.0 mi South 15.0 mph 21.9 mph N/A   Clear
2:15 PM 81.3 °F 83.8 °F 67.1 °F 62% 29.79 in 10.0 mi South 12.7 mph 25.3 mph N/A   Clear
2:35 PM 81.1 °F 83.5 °F 67.1 °F 62% 29.79 in 10.0 mi South 15.0 mph 20.7 mph N/A   Clear
2:55 PM 80.8 °F 83.5 °F 67.8 °F 65% 29.78 in 10.0 mi SSE 18.4 mph - N/A   Clear
3:15 PM 80.1 °F 82.7 °F 68.0 °F 67% 29.78 in 10.0 mi SSE 16.1 mph 20.7 mph N/A   Clear
3:35 PM 79.5 °F - 67.8 °F 67% 29.77 in 10.0 mi SSE 17.3 mph - N/A   Clear
3:55 PM 78.8 °F - 68.0 °F 69% 29.78 in 10.0 mi SSE 15.0 mph 19.6 mph N/A   Clear
4:15 PM 78.1 °F - 68.4 °F 72% 29.77 in 10.0 mi SSE 12.7 mph - N/A   Clear
4:35 PM 77.5 °F - 68.5 °F 74% 29.78 in 10.0 mi SSE 10.4 mph 17.3 mph N/A   Clear
4:55 PM 76.8 °F - 68.7 °F 76% 29.78 in 10.0 mi SSE 13.8 mph - N/A   Clear
5:15 PM 75.7 °F - 68.7 °F 79% 29.78 in 10.0 mi SSE 12.7 mph - N/A   Clear
5:35 PM 74.5 °F - 68.7 °F 82% 29.79 in 10.0 mi SSE 9.2 mph - N/A   Clear
5:55 PM 73.6 °F - 68.7 °F 85% 29.79 in 10.0 mi SSE 9.2 mph - N/A   Clear
6:15 PM 73.0 °F - 68.5 °F 86% 29.80 in 10.0 mi SSE 9.2 mph - N/A   Clear
6:35 PM 72.7 °F - 68.5 °F 87% 29.79 in 10.0 mi SE 9.2 mph - N/A   Clear
7:15 PM 72.5 °F - 68.7 °F 88% 29.80 in 10.0 mi SSE 9.2 mph - N/A   Clear
7:35 PM 72.3 °F - 68.9 °F 89% 29.81 in 10.0 mi SE 9.2 mph - N/A   Clear
7:55 PM 72.0 °F - 68.9 °F 90% 29.82 in 10.0 mi SSE 8.1 mph - N/A   Clear
8:15 PM 71.6 °F - 68.9 °F 91% 29.83 in 10.0 mi SSE 8.1 mph - N/A   Clear
8:35 PM 71.6 °F - 68.9 °F 91% 29.83 in 10.0 mi SSE 9.2 mph - N/A   Clear
8:55 PM 71.6 °F - 68.9 °F 91% 29.83 in 10.0 mi SSE 8.1 mph - N/A   Clear
9:15 PM 71.6 °F - 68.9 °F 91% 29.84 in 10.0 mi SSE 6.9 mph - N/A   Clear
9:35 PM 71.6 °F - 68.9 °F 91% 29.85 in 10.0 mi SSE 8.1 mph - N/A   Clear
9:55 PM 71.8 °F - 69.1 °F 91% 29.85 in 10.0 mi SSE 9.2 mph - N/A   Clear
10:15 PM 71.6 °F - 68.9 °F 91% 29.85 in 10.0 mi SSE 6.9 mph - N/A   Clear
10:35 PM 71.6 °F - 69.1 °F 92% 29.85 in 10.0 mi SSE 9.2 mph - N/A   Clear
10:55 PM 71.6 °F - 69.1 °F 92% 29.84 in 10.0 mi SSE 10.4 mph - N/A   Clear
11:15 PM 72.0 °F - 69.3 °F 91% 29.84 in 10.0 mi SSE 8.1 mph - N/A   Clear
11:35 PM 72.0 °F - 69.3 °F 91% 29.84 in 10.0 mi SSE 8.1 mph - N/A   Clear
11:55 PM 71.8 °F - 69.3 °F 92% 29.83 in 10.0 mi SSE 8.1 mph - N/A   Clear